User: anonymous   Login
Location: Plum
(40.5000°N, 79.7500°W)
Time: 06:25:24
(UTC-04:00)
Language:

Cosmos 1825 - Orbit

View from above orbital plane
View from above orbital plane
View from above satellite
View from above satellite

Ground track
Ground track

The orbit data is extracted from the following two-line orbital elements,

1 17566U 87024A   15247.49929655  .00001841  00000-0  93252-4 0  9993
2 17566  82.5052 215.3350 0003239 347.6519  12.4634 15.16395027554991
Epoch (UTC): 04 September 2015 11:58:59
Eccentricity: 0.0003239
inclination: 82.5052°
perigee height: 514 km
apogee height: 519 km
right ascension of ascending node: 215.3350°
argument of perigee: 347.6519°
revolutions per day: 15.16395027
mean anomaly at epoch: 12.4634°
orbit number at epoch: 55499

The dashed part of the orbit path shows where the satellite is in the earth's shadow,  

DLR